EZY2895 EGJJ-LSZH

Flight info

Callsign EZY2895
Flight time N/A
Altitude 37000
Route ORVAL DCT EKRAS UN491 POGZI DCT GELTA DCT MANAG DCT PEVIT DCT BLM
Aircraft A320/M-SDE3FGHIRWY/LB1

Departure

Time 2026-05-05 17:51
Airport Jersey Airport (EGJJ)

Arrival

Time N/A
Airport Zürich Airport (LSZH)
Time Latitude Longitude Altitude Speed Heading
2026-05-05 17:22 49.20551 -2.19806 284 ft 0 kts 174°
2026-05-05 17:38 49.20561 -2.19808 284 ft 2 kts 174°
2026-05-05 17:38 49.20578 -2.19811 286 ft 2 kts 174°
2026-05-05 17:39 49.20595 -2.19813 288 ft 2 kts 174°
2026-05-05 17:39 49.20611 -2.19813 290 ft 0 kts 205°
2026-05-05 17:44 49.20604 -2.19852 284 ft 8 kts 261°
2026-05-05 17:44 49.20591 -2.19922 284 ft 6 kts 230°
2026-05-05 17:44 49.20561 -2.19935 284 ft 4 kts 181°
2026-05-05 17:45 49.20517 -2.19986 284 ft 10 kts 283°
2026-05-05 17:45 49.20537 -2.20085 286 ft 9 kts 287°
2026-05-05 17:45 49.20557 -2.20183 284 ft 10 kts 287°
2026-05-05 17:45 49.20575 -2.20278 284 ft 9 kts 286°
2026-05-05 17:46 49.20591 -2.20363 289 ft 8 kts 286°
2026-05-05 17:46 49.20605 -2.20435 284 ft 7 kts 286°
2026-05-05 17:46 49.20618 -2.20508 284 ft 0 kts 284°
2026-05-05 17:48 49.20622 -2.20539 288 ft 13 kts 280°
2026-05-05 17:48 49.20640 -2.20677 287 ft 16 kts 302°
2026-05-05 17:48 49.20704 -2.20653 283 ft 11 kts 97°
2026-05-05 17:48 49.20714 -2.20549 283 ft 9 kts 78°
2026-05-05 17:49 49.20716 -2.20529 283 ft 0 kts 82°
2026-05-05 17:50 49.20725 -2.20436 284 ft 39 kts 83°
2026-05-05 17:51 49.20746 -2.20147 283 ft 81 kts 81°
2026-05-05 17:51 49.20853 -2.18888 316 ft 153 kts 81°
2026-05-05 17:51 49.20951 -2.17178 956 ft 162 kts 77°
2026-05-05 17:51 49.21097 -2.15562 1594 ft 183 kts 77°
2026-05-05 17:52 49.21298 -2.13508 2304 ft 208 kts 77°
2026-05-05 17:52 49.21523 -2.11190 3113 ft 233 kts 78°
2026-05-05 17:52 49.21435 -2.08594 4003 ft 259 kts 103°
2026-05-05 17:52 49.20424 -2.06242 4875 ft 274 kts 133°
2026-05-05 17:53 49.19013 -2.04254 5812 ft 278 kts 135°
2026-05-05 17:53 49.17570 -2.02254 6688 ft 283 kts 135°
2026-05-05 17:53 49.16104 -2.00224 7554 ft 286 kts 135°
2026-05-05 17:53 49.14620 -1.98169 8460 ft 289 kts 135°
2026-05-05 17:54 49.14036 -1.97359 8817 ft 290 kts 135°
2026-05-05 17:54 49.12944 -1.95845 9489 ft 291 kts 135°
2026-05-05 17:54 49.11436 -1.93748 10262 ft 300 kts 135°
2026-05-05 17:54 49.09840 -1.91517 10546 ft 323 kts 135°
2026-05-05 17:55 49.08153 -1.89155 11119 ft 333 kts 135°
2026-05-05 17:55 49.06430 -1.86745 11871 ft 338 kts 135°
2026-05-05 17:55 49.04838 -1.84099 12639 ft 341 kts 123°
2026-05-05 17:55 49.03649 -1.80974 13405 ft 342 kts 111°
2026-05-05 17:56 49.02933 -1.77515 14116 ft 343 kts 98°
2026-05-05 17:56 49.02589 -1.73906 14805 ft 346 kts 96°
2026-05-05 17:56 49.02254 -1.70256 15491 ft 350 kts 96°
2026-05-05 17:56 49.01908 -1.66569 16168 ft 353 kts 96°
2026-05-05 17:57 49.01555 -1.62846 16840 ft 357 kts 96°
2026-05-05 17:57 49.01197 -1.59086 17510 ft 361 kts 96°
2026-05-05 17:57 49.00834 -1.55281 18176 ft 365 kts 97°
2026-05-05 17:57 49.00465 -1.51444 18756 ft 368 kts 97°
2026-05-05 17:58 49.00093 -1.47581 19348 ft 371 kts 97°
2026-05-05 17:58 48.99716 -1.43672 19947 ft 374 kts 97°
2026-05-05 17:58 48.99336 -1.39744 20550 ft 376 kts 97°
2026-05-05 17:58 48.98949 -1.35783 21131 ft 379 kts 97°
2026-05-05 17:59 48.98558 -1.31797 21738 ft 382 kts 97°
2026-05-05 17:59 48.98167 -1.27781 22332 ft 385 kts 97°
2026-05-05 17:59 48.97771 -1.23730 22927 ft 388 kts 97°
2026-05-05 17:59 48.97371 -1.19646 23500 ft 392 kts 97°
2026-05-05 18:00 48.96966 -1.15531 23983 ft 394 kts 97°
2026-05-05 18:00 48.96556 -1.11393 24475 ft 397 kts 97°
2026-05-05 18:00 48.96149 -1.07291 24957 ft 398 kts 97°
2026-05-05 18:00 48.95725 -1.03055 25444 ft 400 kts 97°
2026-05-05 18:01 48.95309 -0.98917 25898 ft 402 kts 97°
2026-05-05 18:01 48.94884 -0.94700 26351 ft 404 kts 98°
2026-05-05 18:01 48.94458 -0.90472 26789 ft 406 kts 98°
2026-05-05 18:01 48.94027 -0.86218 27218 ft 408 kts 98°
2026-05-05 18:02 48.93592 -0.81944 27638 ft 410 kts 98°